AO-07 1 07530U 74089B 15042.56119884 -.00000033 00000-0 64266-4 0 9992 2 07530 101.5058 021.7848 0011909 186.4820 293.7602 12.53611822841515 FO-29 1 24278U 96046B 15043.03038258 .00000044 00000-0 79815-4 0 9992 2 24278 098.5261 028.8389 0350922 035.5325 008.0176 13.53043635913107 SO-33 1 25509U 98061B 15042.93203853 .00000746 00000-0 13660-3 0 9996 2 25509 031.4297 241.6811 0348231 055.2814 081.8663 14.29837754851486 RS-22 1 27939U 03042A 15043.44085697 .00001641 00000-0 30874-3 0 9992 2 27939 097.8245 211.0017 0014019 064.9400 295.3259 14.65792147607911 HO-68 1 36122U 09072B 15043.36573228 -.00000060 00000-0 -43517-4 0 9993 2 36122 100.2130 092.5315 0007633 047.5318 312.6443 13.16323787248036 AO-73 1 39444U 13066AE 15043.14986766 .00002833 00000-0 37310-3 0 9993 2 39444 097.7462 110.4492 0060747 181.9523 178.1461 14.79625205 64925 EO-79 1 40025U 14033R 15043.44833583 .00003897 00000-0 44580-3 0 9994 2 40025 097.9648 303.5014 0011745 232.2465 127.7638 14.86536393 35262 UO-11 1 14781U 84021B 15043.15073097 .00000816 00000-0 10897-3 0 9994 2 14781 097.8186 103.2215 0010086 117.7443 242.4794 14.82156944663504 AO-16 1 20439U 90005D 15041.78051105 .00000182 00000-0 83051-4 0 9992 2 20439 098.5311 339.9053 0011274 168.8101 220.9592 14.32488076308642 LO-19 1 20442U 90005G 15041.86732445 .00000171 00000-0 78760-4 0 9997 2 20442 098.5023 339.9283 0012443 157.6464 202.5265 14.32683863308855 AO-27 1 22825U 93061C 15042.25232346 .00000166 00000-0 81867-4 0 9994 2 22825 098.6942 352.4357 0007551 322.6962 125.1285 14.29833700114946 IO-26 1 22826U 93061D 15041.82979423 .00000186 00000-0 89278-4 0 9997 2 22826 098.6884 352.1980 0007993 315.0887 044.9647 14.30145378115022 GO-32 1 25397U 98043D 15043.13436468 .00000077 00000-0 52426-4 0 9995 2 25397 098.5049 357.6037 0001051 032.7703 033.7695 14.23516431862002 NO-44 1 26931U 01043C 15041.79386921 .00000158 00000-0 92940-4 0 9997 2 26931 067.0525 143.1090 0006829 267.9078 092.1242 14.30256211697726 SO-50 1 27607U 02058C 15042.91279502 .00000845 00000-0 14239-3 0 9993 2 27607 064.5550 221.2262 0074066 313.5459 045.9506 14.74442933652811 CO-55 1 27844U 03031E 15042.01107101 .00000374 00000-0 19018-3 0 9991 2 27844 098.6973 052.3365 0008680 308.1613 105.0062 14.21709854602516 CO-57 1 27848U 03031J 15042.00008667 .00000324 00000-0 16836-3 0 9991 2 27848 098.7070 052.1666 0008641 316.1557 097.7983 14.21369690602423 AO-51 1 28375U 04025K 15042.82369682 .00000319 00000-0 10748-3 0 9998 2 28375 098.2808 346.9595 0082354 349.0982 010.8421 14.41582070558422 CP3 1 31129U 07012N 15043.17936914 .00002468 00000-0 54297-3 0 9999 2 31129 097.9650 014.5019 0096680 344.1967 146.3049 14.55469339414934 CO-65 1 32785U 08021C 15043.18622141 .00002647 00000-0 30557-3 0 9996 2 32785 097.6669 091.2822 0014997 117.5823 278.3792 14.86365209367661 PRISM 1 33493U 09002B 15043.47953831 .00007367 00000-0 72979-3 0 9996 2 33493 098.2515 234.8714 0017234 020.9970 339.1977 14.92034220327971 SOHLA-1 1 33496U 09002E 15042.42704943 .00000668 00000-0 11661-3 0 9999 2 33496 098.1936 169.3977 0006307 192.3905 238.4453 14.71191048324688 TISAT-1 1 36799U 10035E 15043.20999292 .00005081 00000-0 56495-3 0 9994 2 36799 098.0127 142.2568 0012123 254.8261 165.8976 14.87565333248379 STUDSAT 1 36801U 10035G 15043.23503572 .00026460 00000-0 18124-2 0 9993 2 36801 098.0507 156.4242 0006396 204.3321 242.7796 15.06024452249126 ALMASAT-1 1 38078U 12006B 15043.14069966 .00040875 00000-0 76733-3 0 9992 2 38078 069.4571 193.3863 0517964 069.3791 296.2028 14.68137436156611 XATCOBEO 1 38082U 12006F 14243.34478676 .13583328 43697-5 37939-3 0 9990 2 38082 069.3815 097.0364 0033293 225.1799 135.4582 16.41261006136239 CUBEBUG-1 1 39153U 13018D 15043.19589900 .00002363 00000-0 32840-3 0 9992 2 39153 098.0237 127.9325 0016267 298.3933 061.5638 14.78744212 97005 ESTCUBE-1 1 39161U 13021C 15043.44911086 .00002163 00000-0 36215-3 0 9995 2 39161 098.0787 127.4674 0009891 358.8209 001.2976 14.70798419 94901 DUCHIFAT-1 1 40021U 14033M 15043.46936768 .00005425 00000-0 60897-3 0 9999 2 40021 097.9647 303.6803 0012831 232.4375 127.5661 14.87130811 35263 NANOSATCBR1 1 40024U 14033Q 15043.42909953 .00004931 00000-0 55833-3 0 9999 2 40024 097.9628 303.5249 0011882 230.0635 129.9524 14.86831210 35259 DTUSAT-2 1 40030U 14033W 15043.50873571 .00004002 00000-0 46207-3 0 9995 2 40030 097.9612 303.3923 0011526 222.5949 137.4355 14.86145675 35265 ANTELSAT 1 40034U 14033AA 15043.41667402 .00002720 00000-0 42669-3 0 9996 2 40034 097.9585 298.1390 0060646 158.3537 202.0234 14.72235445 34931 MET-2/21 1 22782U 93055A 15043.21392456 .00000065 00000-0 45477-4 0 9990 2 22782 082.5530 342.8405 0021199 313.9202 155.6362 13.83761949 83318 OKEAN-4 1 23317U 94066A 15043.24814279 .00002233 00000-0 25006-3 0 9997 2 23317 082.5373 202.7400 0020628 027.6257 152.4590 14.86311139 98750 NOAA-14 1 23455U 94089A 15043.53004890 .00000040 00000-0 43597-4 0 9997 2 23455 098.7595 127.5138 0010433 078.8090 038.1958 14.14022083 37913 NOAA-15 1 25338U 98030A 15043.59848381 .00000163 00000-0 87766-4 0 9998 2 25338 098.7682 042.1876 0011125 165.2837 304.2182 14.25564831871097 RESURS 1 25394U 98043A 15042.96434850 .00000034 00000-0 32578-4 0 9994 2 25394 098.4494 002.6743 0000235 280.9521 119.2268 14.24441541862456 FENGYUN1 1 25730U 99025A 15043.15521233 .00001173 00000-0 65201-3 0 9996 2 25730 098.9336 008.1627 0019540 143.9644 343.6792 14.12992413811393 OKEAN-0 1 25860U 99039A 15043.03092645 .00000930 00000-0 14323-3 0 9991 2 25860 098.0784 011.0110 0001493 083.6049 318.7240 14.75807442837522 NOAA-16 1 26536U 00055A 15043.54646379 -.00000041 00000-0 21003-5 0 9996 2 26536 098.9575 109.5598 0010160 220.0075 140.0349 14.13076411742055 NOAA-17 1 27453U 02032A 15043.57544760 .00000075 00000-0 49526-4 0 9991 2 27453 098.3307 035.8095 0011884 183.0274 177.0837 14.24852364656919 NOAA-18 1 28654U 05018A 15043.59706685 .00000250 00000-0 16167-3 0 9999 2 28654 099.1755 033.2625 0013435 312.3314 154.4451 14.12148075501493 NOAA-19 1 33591U 09005A 15043.53970792 .00000119 00000-0 89587-4 0 9992 2 33591 098.9763 353.2216 0014536 157.9967 331.3486 14.11873647309901 HUBBLE 1 20580U 90037B 15043.03098836 .00003541 00000-0 22034-3 0 9991 2 20580 028.4693 259.0787 0003107 340.0763 154.3233 15.06805033160910 ISS 1 25544U 98067A 15043.32811632 .00024333 00000-0 36613-3 0 9996 2 25544 051.6483 347.5817 0005937 359.5524 149.6677 15.54676862928606 CO-58 1 28895U 05043F 15043.13958421 .00001049 00000-0 21525-3 0 9992 2 28895 097.8222 237.4503 0016417 336.2076 023.8365 14.62497289495315 FALCON 1 30776U 07006E 15042.18843588 .00015119 00000-0 65877-3 0 9996 2 30776 035.4282 069.3106 0003900 234.7356 184.5207 15.21406363437086 MAST 1 31126U 07012K 15042.16382269 .00001832 00000-0 40583-3 0 9999 2 31126 097.9451 016.0519 0090470 329.7278 091.5225 14.55814372415150 CAPE1 1 31130U 07012P 15042.43347047 .00002408 00000-0 53318-3 0 9999 2 31130 097.9666 013.2973 0097428 348.2284 011.6637 14.55165715414596 COMPASS 1 32787U 08021E 15043.18880511 .00004166 00000-0 43893-3 0 9990 2 32787 097.6693 094.6647 0014683 107.4362 252.8463 14.89795113367891 AAUSAT2 1 32788U 08021F 15043.13175735 .00004879 00000-0 50141-3 0 9996 2 32788 097.6702 095.9196 0014182 105.3344 254.9443 14.90726960367962 DO-64 1 32789U 08021G 15043.14337057 .00009594 00000-0 82331-3 0 9990 2 32789 097.6912 105.0772 0012529 086.2064 326.1732 14.97634066368357 CO-66 1 32791U 08021J 15043.18583950 .00003335 00000-0 36787-3 0 9993 2 32791 097.6689 092.8653 0015484 112.1579 248.1283 14.88055881367721 RS-30 1 32953U 08025A 15043.48254944 .00000010 00000-0 -13620-7 0 9991 2 32953 082.5013 051.7924 0018652 355.5554 004.5356 12.43056503305117 METEOR-M 1 35865U 09049A 15043.52552201 .00000166 00000-0 94127-4 0 9994 2 35865 098.5169 088.2341 0003022 111.3501 248.7999 14.21990075280491 RS-38 1 35869U 09049E 15043.51225689 .00000099 00000-0 63460-4 0 9995 2 35869 098.5105 087.9137 0005180 110.1710 250.0053 14.22270630280531 JUGNU 1 37839U 11058B 15042.60159462 .00000471 00000-0 10936-3 0 9994 2 37839 019.9603 243.8060 0018970 102.2372 291.8919 14.12419967172446 SRMSAT 1 37841U 11058D 15043.02048486 .00000410 00000-0 80954-4 0 9998 2 37841 019.9711 265.4241 0011857 038.0266 081.4753 14.10440826172259 RAX-2 1 37853U 11061D 15043.01394035 .00009202 00000-0 58240-3 0 9998 2 37853 101.7073 192.7773 0201814 080.9028 033.3270 14.94069691178403 AUBIESAT 1 37854U 11061E 15043.02249343 .00009665 00000-0 58710-3 0 9996 2 37854 101.7126 195.6257 0197897 076.4286 041.3929 14.95956420178498 HRBE 1 37855U 11061F 15042.11658249 .00011445 00000-0 70455-3 0 9994 2 37855 101.7128 193.1981 0201561 081.2881 281.1097 14.94922573178308 RS-39 1 38051U 11062C 14288.65876392 .70201582 12497-4 27925-2 0 9995 2 38051 051.5964 324.1908 0006422 269.6897 186.8903 16.43533377153081 E-STAR 1 38079U 12006C 15016.13455217 .17990388 48979-5 52837-3 0 9992 2 38079 069.3967 125.0648 0013168 047.0341 316.5109 16.44007688156194 GOLIAT 1 38085U 12006J 15043.43017945 .01727158 45142-5 13800-2 0 9995 2 38085 069.4082 061.3592 0061801 356.2382 003.8680 16.09806563160091 HORYU-2 1 38340U 12025D 15042.33210898 .00002985 00000-0 46448-3 0 9997 2 38340 098.2978 009.1839 0013145 132.5803 227.6516 14.73727035146996 RS-40 1 38735U 12041C 15043.47031897 .00000040 00000-0 21992-3 0 9996 2 38735 082.4789 137.7469 0017649 093.9643 266.3452 12.42567314115420 PROITERES 1 38756U 12047B 15043.43743768 .00001580 00000-0 23950-3 0 9994 2 38756 098.2191 140.6659 0011886 341.8419 018.2363 14.75549407130605 BEESAT-3 1 39134U 13015E 15042.20590548 .00012365 00000-0 76160-3 0 9995 2 39134 064.8737 099.8965 0034992 270.2614 089.4498 15.09772353 99666 BEESAT-2 1 39136U 13015G 15043.20093729 .00009077 00000-0 58127-3 0 9996 2 39136 064.8745 098.2222 0035559 269.8606 089.8441 15.08549826 99793 LO-75 1 39382U 13064C 14295.69194059 .07301741 00000-0 36367-2 0 9993 2 39382 040.4713 030.2705 0002289 341.7175 018.4586 16.19795749470823 ZACUBE-1 1 39417U 13066B 15043.14522480 .00002243 00000-0 29967-3 0 9996 2 39417 097.7462 110.2997 0061293 182.4588 177.6331 14.79203092 66149 TRITON-1 1 39427U 13066M 15043.13993841 .00001715 00000-0 28978-3 0 9993 2 39427 097.7331 101.1693 0116285 205.5797 153.9627 14.66247736 65534 DELFIN3XT 1 39428U 13066N 15043.16312940 .00003063 00000-0 52109-3 0 9993 2 39428 097.7330 099.7503 0125412 209.6076 149.7989 14.64709204 65437 GOMX-1 1 39430U 13066Q 15043.36592252 .00002415 00000-0 45932-3 0 9990 2 39430 097.7255 095.4077 0153844 222.5683 136.3508 14.57663068 65194 MO-76 1 39436U 13066W 15043.14718126 .00029119 00000-0 23224-2 0 9991 2 39436 097.7527 119.1227 0023092 166.2608 193.9249 15.00048233 66704 LO-74 1 39440U 13066AA 15042.23661107 .00002711 00000-0 39741-3 0 9992 2 39440 097.7415 105.8162 0082780 193.7753 166.1198 14.74055467 65778 PUCPSAT-1 1 39442U 13066AC 15043.16171757 .00003387 00000-0 37311-3 0 9995 2 39442 097.7530 116.0377 0033970 173.6359 186.5296 14.87778170 65273 SHINAISAT 1 39572U 14009A 14328.13084988 .28848087 76253-5 66603-3 0 9996 2 39572 064.9728 197.0096 0013534 259.7861 100.1802 16.45181032 42403 TEIKYOSAT 1 39576U 14009E 14297.85867254 .09345816 76764-5 25176-3 0 9997 2 39576 064.9818 300.5833 0008491 317.3597 044.3862 16.45008906 37698 CO-77 1 39577U 14009F 14244.78324653 .10543803 76292-5 32273-3 0 9993 2 39577 064.9920 123.7668 0014904 269.7208 091.1897 16.43552757 29380 SPROUT 1 39770U 14029E 15043.34485149 .00001958 00000-0 24492-3 0 9990 2 39770 097.8682 141.9321 0008864 247.5034 112.5265 14.83419218 39128 POPSAT-HIP1 1 40028U 14033U 15043.40697211 .00003832 00000-0 44010-3 0 9996 2 40028 097.9676 303.5082 0013374 228.5560 131.4480 14.86376495 35245 EO-80 1 40032U 14033Y 15043.44570526 .00004016 00000-0 46398-3 0 9990 2 40032 097.9618 303.3418 0011627 223.0209 137.0058 14.86113701 35259 VELOX-1 1 40057U 14034E 15043.42643304 .00003702 00000-0 55508-3 0 9995 2 40057 098.2265 119.4843 0010554 278.7459 081.2543 14.75195152 33488 DAURIA DX 1 1 40071U 14037C 15043.41164547 .00001741 00000-0 23713-3 0 9994 2 40071 098.3717 109.6323 0007643 282.6959 077.3402 14.80087852 32331 UKUBE-1 1 40074U 14037F 15043.45119847 .00003663 00000-0 47378-3 0 9992 2 40074 098.3735 110.0951 0003999 294.9981 065.0812 14.81553783 32362 CHASQUI-1 1 40117U 98067ET 15014.73322295 .07508583 12315-4 10026-2 0 9990 2 40117 051.6189 112.4445 0004239 337.2783 022.7551 16.34635278 23368 HODOYOSHI-1 1 40299U 14070B 15043.48723703 .00006917 00000-0 34160-3 0 9993 2 40299 097.4643 126.6211 0012771 203.2558 213.6380 15.18118980 14898 CHUBUSAT-1 1 40300U 14070C 15043.48852117 .00008654 00000-0 44874-3 0 9991 2 40300 097.4618 126.2890 0022344 205.2987 211.2365 15.16182597 14875 QSAT-EOS 1 40301U 14070D 15043.44884462 .00015077 00000-0 81202-3 0 9999 2 40301 097.4586 125.8815 0033487 206.3221 282.7833 15.14420343 14847 TSUBAME 1 40302U 14070E 15043.01714267 .00007885 00000-0 45918-3 0 9990 2 40302 097.4562 125.0498 0043904 208.8105 277.1010 15.11459397 14746 FIREBIRD FU3 1 40377U 15003B 15043.48018268 .00019780 00000-0 10377-2 0 9995 2 40377 099.1247 054.1100 0165742 301.2304 057.2587 15.04640208 1784 FIREBIRD FU4 1 40378U 15003C 15043.47994891 .00019814 00000-0 10384-2 0 9996 2 40378 099.1245 054.1103 0165781 301.1779 057.3061 15.04670470 1786 GRIFEX 1 40379U 15003D 15043.48089946 .00016262 00000-0 85878-3 0 9999 2 40379 099.1275 054.1108 0165484 302.1112 056.3897 15.04507235 1781 /EX
